EZY55AW EGKK-EGPD

Flight info

Callsign EZY55AW
Flight time N/A
Altitude 36000
Route LAM1Z LAM L10 BPK UN601 LESTA UY250 KEFTE/N0439F370 DCT MADAD/N0380F240 P18 EPCAN DCT
Aircraft A20N/M-SDE2E3FGHIRWXY/LB1

Departure

Time N/A
Airport London Gatwick Airport (EGKK)

Arrival

Time 2026-05-07 18:00
Airport Aberdeen International Airport (EGPD)
Time Latitude Longitude Altitude Speed Heading
2026-05-07 17:39 56.44266 -1.93112 20175 ft 366 kts 345°
2026-05-07 17:39 56.46694 -1.94028 19995 ft 347 kts 345°
2026-05-07 17:39 56.48994 -1.94900 19826 ft 329 kts 345°
2026-05-07 17:39 56.51182 -1.95732 19599 ft 315 kts 345°
2026-05-07 17:40 56.53313 -1.96546 19118 ft 311 kts 345°
2026-05-07 17:40 56.55419 -1.97354 18598 ft 310 kts 345°
2026-05-07 17:40 56.57530 -1.98161 18033 ft 309 kts 345°
2026-05-07 17:40 56.59625 -1.98960 17500 ft 305 kts 344°
2026-05-07 17:41 56.61693 -1.99747 16978 ft 302 kts 344°
2026-05-07 17:41 56.63735 -2.00526 16459 ft 298 kts 344°
2026-05-07 17:41 56.65757 -2.01298 15950 ft 295 kts 344°
2026-05-07 17:41 56.67732 -2.02052 15459 ft 292 kts 344°
2026-05-07 17:42 56.69709 -2.02809 14970 ft 289 kts 343°
2026-05-07 17:42 56.71630 -2.03738 14480 ft 282 kts 332°
2026-05-07 17:42 56.73403 -2.05191 13992 ft 278 kts 329°
2026-05-07 17:42 56.75142 -2.06669 13488 ft 275 kts 329°
2026-05-07 17:43 56.76868 -2.08136 12965 ft 272 kts 329°
2026-05-07 17:43 56.78578 -2.09596 12430 ft 271 kts 330°
2026-05-07 17:43 56.80275 -2.11051 11906 ft 269 kts 330°
2026-05-07 17:43 56.81961 -2.12504 11347 ft 268 kts 329°
2026-05-07 17:44 56.83673 -2.13998 10585 ft 277 kts 329°
2026-05-07 17:44 56.85418 -2.15535 10119 ft 278 kts 329°
2026-05-07 17:44 56.87159 -2.17060 9762 ft 277 kts 329°
2026-05-07 17:44 56.88884 -2.18580 9398 ft 274 kts 329°
2026-05-07 17:45 56.90602 -2.20097 8973 ft 274 kts 329°
2026-05-07 17:45 56.92311 -2.21617 8575 ft 273 kts 329°
2026-05-07 17:45 56.94016 -2.23120 8183 ft 272 kts 329°
2026-05-07 17:45 56.95747 -2.24520 7794 ft 273 kts 336°
2026-05-07 17:46 56.97564 -2.25540 7415 ft 273 kts 339°
2026-05-07 17:46 56.99392 -2.26501 7048 ft 273 kts 339°
2026-05-07 17:46 57.01211 -2.27456 6731 ft 272 kts 339°
2026-05-07 17:46 57.03023 -2.28403 6421 ft 269 kts 339°
2026-05-07 17:47 57.04813 -2.29333 6183 ft 263 kts 339°
2026-05-07 17:47 57.06546 -2.30220 6077 ft 257 kts 339°
2026-05-07 17:47 57.08281 -2.31114 6006 ft 259 kts 339°
2026-05-07 17:47 57.10015 -2.32005 5997 ft 258 kts 339°
2026-05-07 17:48 57.11745 -2.32885 5999 ft 258 kts 339°
2026-05-07 17:48 57.13476 -2.33766 5998 ft 257 kts 339°
2026-05-07 17:48 57.15195 -2.34647 5814 ft 256 kts 339°
2026-05-07 17:48 57.16913 -2.35524 5487 ft 257 kts 339°
2026-05-07 17:49 57.18619 -2.36395 5206 ft 255 kts 339°
2026-05-07 17:49 57.20329 -2.37273 4876 ft 256 kts 339°
2026-05-07 17:49 57.22035 -2.38129 4616 ft 252 kts 340°
2026-05-07 17:49 57.23730 -2.38989 4254 ft 253 kts 340°
2026-05-07 17:50 57.25422 -2.39859 3966 ft 252 kts 340°
2026-05-07 17:50 57.27107 -2.40738 3643 ft 252 kts 339°
2026-05-07 17:50 57.28791 -2.41625 3366 ft 251 kts 339°
2026-05-07 17:50 57.30463 -2.42507 3119 ft 248 kts 339°
2026-05-07 17:51 57.32132 -2.43391 3035 ft 254 kts 339°
2026-05-07 17:51 57.33822 -2.44285 2993 ft 250 kts 339°
2026-05-07 17:51 57.35475 -2.45158 2991 ft 251 kts 339°
2026-05-07 17:51 57.37153 -2.46057 2988 ft 251 kts 339°
2026-05-07 17:52 57.38846 -2.46986 2987 ft 251 kts 339°
2026-05-07 17:52 57.40564 -2.47399 2993 ft 260 kts
2026-05-07 17:52 57.42246 -2.46258 2980 ft 256 kts 37°
2026-05-07 17:52 57.43356 -2.43898 2979 ft 234 kts 67°
2026-05-07 17:53 57.43674 -2.41170 2977 ft 204 kts 104°
2026-05-07 17:53 57.43152 -2.38961 2981 ft 184 kts 143°
2026-05-07 17:53 57.42150 -2.37633 2986 ft 174 kts 155°
2026-05-07 17:53 57.41103 -2.36438 3000 ft 186 kts 155°
2026-05-07 17:54 57.40053 -2.35237 2986 ft 166 kts 154°
2026-05-07 17:54 57.39173 -2.34144 2983 ft 137 kts 157°
2026-05-07 17:54 57.38371 -2.33340 3008 ft 131 kts 162°
2026-05-07 17:54 57.37543 -2.32666 3010 ft 137 kts 165°
2026-05-07 17:55 57.36615 -2.31974 3007 ft 144 kts 164°
2026-05-07 17:55 57.35681 -2.31267 2990 ft 147 kts 165°
2026-05-07 17:55 57.34730 -2.30559 2995 ft 147 kts 165°
2026-05-07 17:55 57.33777 -2.29848 2938 ft 147 kts 165°
2026-05-07 17:56 57.32827 -2.29141 2770 ft 147 kts 164°
2026-05-07 17:56 57.31872 -2.28431 2569 ft 147 kts 164°
2026-05-07 17:56 57.30926 -2.27728 2384 ft 146 kts 164°
2026-05-07 17:56 57.29988 -2.27030 2174 ft 144 kts 164°
2026-05-07 17:57 57.29060 -2.26342 1960 ft 143 kts 164°
2026-05-07 17:57 57.28451 -2.25890 1849 ft 143 kts 164°
2026-05-07 17:57 57.27233 -2.24985 1578 ft 133 kts 163°
2026-05-07 17:57 57.26439 -2.24392 1404 ft 116 kts 163°
2026-05-07 17:58 57.25708 -2.23857 1253 ft 113 kts 163°
2026-05-07 17:58 57.24984 -2.23321 1097 ft 112 kts 162°
2026-05-07 17:58 57.24259 -2.22784 934 ft 111 kts 162°
2026-05-07 17:58 57.23550 -2.22255 800 ft 113 kts 161°
2026-05-07 17:59 57.22814 -2.21698 667 ft 112 kts 160°
2026-05-07 17:59 57.22077 -2.21148 514 ft 114 kts 160°
2026-05-07 17:59 57.21327 -2.20606 352 ft 118 kts 160°
2026-05-07 17:59 57.20580 -2.20059 249 ft 106 kts 158°
2026-05-07 18:00 57.20077 -2.19684 250 ft 66 kts 156°
2026-05-07 18:00 57.19757 -2.19452 250 ft 35 kts 158°
2026-05-07 18:00 57.19561 -2.19311 247 ft 23 kts 158°
2026-05-07 18:00 57.19435 -2.19244 246 ft 13 kts 200°
2026-05-07 18:01 57.19425 -2.19327 247 ft 10 kts 288°
2026-05-07 18:01 57.19504 -2.19486 247 ft 20 kts 318°
2026-05-07 18:01 57.19593 -2.19629 247 ft 16 kts 321°
2026-05-07 18:01 57.19705 -2.19737 247 ft 19 kts 337°
2026-05-07 18:02 57.19851 -2.19851 247 ft 12 kts 335°
2026-05-07 18:02 57.19924 -2.19958 247 ft 16 kts 313°
2026-05-07 18:02 57.19975 -2.20074 247 ft 5 kts 266°
2026-05-07 18:03 57.19965 -2.20126 247 ft 7 kts 249°
2026-05-07 18:03 57.19959 -2.20154 247 ft 1 kts 248°
2026-05-07 18:03 57.19956 -2.20165 247 ft 0 kts 248°
2026-05-07 18:03 57.19955 -2.20171 247 ft 1 kts 248°
2026-05-07 18:04 57.19954 -2.20174 247 ft 0 kts 248°